{"data":{"norad_id":64115,"epoch":"2026-05-25T01:28:29.434656Z","epoch_age_seconds":69447,"freshness":"FRESH","line1":"1 64115U 25110V   26145.06145179  .00027866  00000+0  88457-3 0  9990","line2":"2 64115  53.1616  31.4381 0001440  93.4499 266.6667 15.32481387 57584","mean_motion":15.32481387,"eccentricity":0.000144,"inclination_deg":53.1616,"raan_deg":31.4381,"arg_perigee_deg":93.4499,"mean_anomaly_deg":266.6667,"bstar":0.00088457,"rev_number":5758,"period_min":93.965252186127,"perigee_km":467.42580799576,"apogee_km":469.39761402453,"semimajor_km":6846.5487110101,"source":"CELESTRAK","updated_at":"2026-05-25T13:38:20.268098Z"}}